Wind_Speed
24 24 24 25 25 25 25 26 26 26 26 27 27 28 28 29 29 30 30 31 31 32 32 33 33 33 34 34 34 34 34 34 34 34 34 33 33 33 33 33 34 34 34
26 26 26 26 26 27 27 27 27 27 28 28 28 29 30 30 31 32 32 32 33 33 34 34 34 34 35 35 35 35 35 36 36 36 36 36 36 35 36 36 36 36 36
28 27 27 27 28 28 28 29 29 29 29 30 30 30 31 32 32 32 32 33 33 33 34 34 34 34 35 36 36 36 37 37 37 38 38 38 38 38 38 38 39 39 39
30 30 29 30 30 30 30 30 30 31 31 31 32 32 32 32 32 33 33 33 33 34 34 34 34 34 35 35 36 37 37 38 39 39 39 39 40 40 40 40 41 41 41
32 32 32 32 32 32 32 32 33 33 33 33 33 33 33 33 33 34 34 34 34 34 34 34 35 35 36 36 37 37 38 39 40 40 41 41 42 42 42 43 43 43 44
34 34 34 34 35 34 34 35 35 35 35 35 35 35 35 35 35 35 35 35 36 35 35 36 36 36 37 38 38 39 40 40 41 41 42 43 43 44 44 45 45 46 47
36 36 36 36 37 37 37 37 37 36 36 37 37 37 36 36 36 36 36 37 37 37 36 37 38 38 39 39 40 41 41 42 43 43 44 44 45 46 46 47 48 48 49
38 39 39 39 40 40 40 39 39 39 39 38 38 38 38 37 37 37 37 38 38 37 38 39 39 39 40 41 41 42 43 44 45 46 46 47 47 48 49 50 51 51 52
42 42 42 42 43 42 42 42 42 41 41 41 40 40 40 39 39 39 39 39 39 40 40 40 41 41 42 42 43 44 45 46 47 48 49 50 50 51 52 53 54 55 56
45 45 45 45 45 45 45 45 44 44 43 42 42 42 42 42 41 41 40 40 41 41 42 42 43 43 44 45 46 46 47 48 49 50 51 52 53 54 55 57 58 59 60
47 47 47 47 47 47 47 47 46 45 45 45 44 44 43 43 43 43 42 42 42 43 44 45 45 46 47 48 48 49 49 50 52 53 54 55 57 58 59 60 61 62 63
50 50 50 50 49 49 49 48 48 48 47 47 46 46 45 45 44 44 44 44 44 45 46 47 48 49 50 51 51 52 53 54 55 57 58 59 60 61 63 64 65 66 67
53 53 53 52 52 52 51 51 51 50 49 49 49 48 48 47 46 46 47 46 47 47 48 49 51 52 53 54 55 56 57 58 60 61 62 63 64 65 67 68 68 69 70
56 55 55 54 53 53 52 52 52 51 51 51 50 50 50 49 48 48 48 48 49 49 50 51 53 55 56 58 59 60 61 63 64 65 66 67 68 69 70 71 72 72 73
58 57 56 55 54 54 53 54 53 53 53 52 51 51 50 50 49 49 49 49 50 52 52 54 56 58 60 61 63 64 65 66 68 68 69 70 71 72 73 74 75 76 77
60 59 57 56 55 55 54 53 53 53 53 52 52 51 50 49 49 50 50 51 52 54 55 56 59 62 63 65 66 67 68 69 70 71 72 73 75 76 77 78 79 80 81
59 58 56 54 53 53 52 52 53 53 53 51 51 50 49 49 50 50 52 53 55 57 58 60 63 65 66 68 69 71 71 72 73 75 76 78 79 80 81 82 83 84 85
56 55 53 52 51 51 51 52 52 52 51 51 51 50 49 49 51 51 53 55 57 59 61 62 65 67 68 70 71 72 73 75 76 78 80 81 83 84 85 86 87 87 86
54 53 52 51 50 49 49 49 49 49 49 50 49 49 49 50 51 53 55 57 59 62 64 66 67 69 70 72 73 74 75 77 79 82 83 85 87 88 89 88 87 85 82
50 50 49 48 47 46 45 45 45 45 46 46 46 47 49 50 52 54 57 59 61 64 66 68 69 71 72 74 75 76 77 79 82 85 86 87 88 87 85 83 80 77 74
43 44 43 43 42 41 41 42 42 42 43 43 44 46 49 51 53 56 58 61 63 65 67 69 70 72 73 75 77 79 80 81 82 84 84 82 80 77 75 73 71 69 67
35 37 37 37 37 37 37 37 38 38 40 42 44 46 49 51 54 57 59 62 64 66 68 70 71 73 75 77 79 80 81 81 79 78 76 72 71 69 67 66 65 64 63
28 29 30 32 32 32 33 34 36 38 40 42 44 46 48 52 55 57 59 62 65 67 70 71 73 75 76 78 79 79 78 76 73 71 69 66 65 63 62 61 61 60 59
21 23 25 26 27 28 29 32 34 35 38 40 43 46 49 53 55 57 60 62 65 68 70 72 74 76 78 78 77 75 72 68 66 66 66 61 58 57 56 56 57 57 56
16 18 21 22 23 25 27 30 32 35 37 40 44 48 51 53 56 59 61 64 66 68 70 73 75 76 75 74 71 67 64 62 59 56 57 54 51 50 48 48 50 51 51
12 14 17 20 22 24 27 29 32 35 38 42 46 48 51 54 57 59 62 64 65 67 70 72 72 72 69 65 62 60 58 55 51 48 49 48 46 45 41 39 42 44 44
Wind_Direction
280 281 282 283 284 285 285 287 288 287 287 287 287 287 287 286 286 286 286 286 286 286 285 285 285 285 284 284 283 283 282 281 280 280 280 279 277 276 275 275 275 275 274
278 279 280 282 282 282 284 285 286 286 286 287 287 287 288 288 288 288 289 288 288 286 286 285 285 285 284 283 282 282 281 281 280 280 279 278 277 276 275 275 275 275 274
276 278 280 280 281 282 282 283 284 285 286 286 287 288 288 289 289 289 290 289 288 288 287 287 286 286 285 284 283 282 281 281 281 280 279 278 277 276 276 276 275 275 274
275 276 278 278 280 281 282 282 283 285 285 286 287 287 289 289 289 290 291 291 290 290 289 288 288 287 287 286 285 283 282 282 281 280 279 279 277 277 276 276 276 275 274
274 275 276 277 278 280 281 281 282 284 285 285 286 287 288 289 290 290 291 291 292 292 291 290 290 289 289 288 287 286 284 283 282 281 280 279 278 277 277 277 277 276 275
271 273 274 276 277 279 280 281 282 283 283 284 285 286 287 288 289 290 290 291 293 293 292 292 291 291 290 290 288 287 286 285 284 282 281 280 279 278 278 277 277 277 276
271 272 274 275 276 277 278 279 281 281 282 283 284 285 286 287 288 289 290 292 293 293 293 293 293 292 292 292 291 289 288 286 285 284 283 281 280 280 279 279 278 278 277
271 271 272 273 274 275 277 278 279 280 281 282 283 284 286 286 287 289 290 291 292 293 293 294 294 294 293 293 292 291 290 288 287 286 284 283 282 281 280 280 279 279 278
267 269 270 271 272 274 275 276 277 279 279 280 282 283 284 285 286 288 290 291 292 293 293 294 294 293 293 292 293 292 291 290 289 288 286 285 283 282 281 281 280 280 280
267 268 269 270 271 273 274 275 276 277 278 279 281 282 283 284 285 287 288 289 290 292 293 294 294 293 293 292 293 293 292 290 289 289 288 286 285 284 283 283 282 282 281
268 268 269 270 270 271 271 272 273 274 276 278 279 281 282 283 285 286 287 288 290 291 293 294 294 293 294 293 293 293 293 292 291 290 289 287 287 286 285 285 284 283 282
267 267 268 268 268 269 269 270 271 272 274 276 278 280 281 283 285 286 287 288 290 292 293 293 294 294 294 294 295 295 295 294 293 292 291 289 288 287 287 286 285 284 283
266 266 266 265 265 266 266 268 269 271 273 274 276 278 281 283 285 286 286 287 289 291 293 294 295 295 295 295 296 296 296 295 294 294 292 291 290 289 288 287 286 285 284
264 264 263 263 263 264 264 265 268 270 271 273 274 277 279 281 284 285 286 287 289 290 292 294 295 296 295 296 296 296 296 296 295 294 293 292 291 290 289 288 287 286 285
263 262 261 261 261 261 262 263 265 267 269 271 273 276 277 280 283 285 286 287 289 291 291 293 295 295 296 296 297 297 296 296 295 294 293 292 291 290 289 288 287 286 285
261 260 259 259 260 260 260 262 264 266 268 270 273 275 276 280 283 284 286 288 289 291 292 293 294 295 296 297 297 297 296 296 295 294 293 292 292 291 290 289 287 287 286
259 258 258 258 258 259 260 262 263 265 267 269 272 274 277 280 282 284 286 288 290 292 292 294 295 296 297 297 297 298 297 297 296 296 295 294 293 292 291 290 289 288 287
256 255 256 256 257 259 261 262 264 265 266 268 271 273 277 279 281 285 287 289 291 293 294 295 296 297 297 298 298 298 298 298 297 297 296 295 294 293 292 291 290 289 287
254 253 253 254 256 258 261 263 264 265 266 268 270 274 276 279 282 285 288 291 293 295 296 296 297 297 298 298 299 299 300 299 299 297 297 296 295 294 293 291 290 289 287
250 249 250 252 254 258 261 263 265 266 268 269 271 275 277 280 283 286 289 291 294 296 297 298 298 299 299 300 300 301 301 300 300 299 298 297 296 295 294 293 291 289 288
248 247 248 250 254 257 259 262 265 267 269 271 274 277 280 282 286 288 290 293 295 296 297 298 299 300 301 301 302 302 302 301 301 300 300 299 298 297 296 295 293 291 288
245 245 245 248 252 257 260 263 265 268 270 273 276 279 282 285 288 290 293 295 296 297 299 300 301 302 302 303 303 304 303 303 302 302 301 301 300 299 297 295 293 291 289
243 244 246 249 252 256 260 264 267 271 272 274 279 283 286 289 291 294 296 298 299 300 301 302 303 304 304 304 305 305 306 306 306 304 302 302 301 299 297 295 293 291 289
240 242 245 248 251 256 263 267 271 275 277 280 285 289 291 293 295 297 299 300 301 303 303 304 305 306 306 306 307 307 307 308 308 306 305 305 303 301 299 296 294 291 289
241 244 246 251 255 261 266 271 276 281 285 287 290 292 294 296 298 300 301 303 304 305 306 306 307 307 308 308 309 309 310 311 311 309 308 310 308 306 304 301 297 295 293
249 250 253 256 261 268 274 279 283 286 289 291 293 295 297 299 301 303 304 306 306 307 307 308 309 309 310 311 311 313 314 314 314 313 312 314 314 311 310 305 300 298 296
Height
5823 5822 5822 5822 5822 5821 5821 5820 5819 5819 5818 5817 5816 5815 5814 5814 5813 5812 5811 5810 5809 5808 5807 5806 5805 5804 5803 5802 5801 5800 5800 5799 5798 5797 5797 5796 5795 5795 5795 5794 5794 5794 5794
5818 5818 5817 5817 5817 5816 5816 5815 5814 5814 5813 5812 5810 5809 5809 5808 5807 5806 5805 5804 5803 5802 5801 5799 5798 5797 5796 5794 5793 5792 5792 5791 5790 5789 5788 5788 5787 5787 5786 5786 5785 5785 5785
5812 5812 5812 5812 5811 5811 5810 5810 5809 5808 5807 5806 5805 5804 5803 5802 5801 5799 5798 5797 5796 5794 5793 5792 5791 5789 5788 5787 5785 5784 5783 5783 5782 5781 5780 5779 5778 5778 5777 5777 5776 5776 5776
5807 5807 5806 5806 5805 5805 5805 5804 5803 5802 5801 5800 5799 5798 5797 5795 5794 5793 5791 5790 5789 5787 5786 5784 5783 5781 5780 5778 5777 5776 5775 5774 5773 5772 5771 5770 5769 5768 5767 5767 5766 5766 5765
5800 5800 5800 5800 5799 5799 5798 5797 5797 5796 5795 5794 5793 5792 5790 5789 5787 5786 5784 5783 5781 5780 5778 5777 5775 5774 5772 5770 5769 5767 5766 5764 5763 5762 5761 5760 5759 5758 5757 5756 5755 5755 5754
5793 5793 5793 5793 5792 5792 5791 5791 5790 5789 5788 5787 5786 5785 5784 5782 5781 5779 5777 5775 5774 5772 5770 5768 5767 5765 5763 5761 5760 5758 5756 5755 5753 5752 5751 5749 5748 5747 5746 5745 5744 5743 5742
5786 5786 5786 5785 5785 5784 5784 5783 5783 5782 5781 5780 5779 5778 5776 5775 5773 5771 5770 5768 5766 5764 5762 5760 5758 5756 5754 5752 5750 5748 5746 5744 5743 5741 5739 5738 5737 5735 5734 5733 5732 5731 5730
5778 5778 5778 5777 5777 5776 5776 5775 5775 5774 5773 5772 5771 5770 5769 5768 5765 5763 5762 5760 5757 5755 5753 5751 5749 5747 5745 5742 5740 5738 5736 5733 5731 5729 5728 5726 5724 5723 5721 5720 5718 5717 5716
5769 5769 5769 5768 5768 5768 5767 5767 5766 5766 5765 5764 5763 5762 5760 5759 5758 5756 5753 5751 5749 5747 5744 5742 5739 5737 5735 5732 5730 5727 5725 5722 5720 5717 5715 5713 5711 5709 5707 5706 5704 5703 5701
5759 5759 5760 5759 5759 5759 5758 5758 5757 5757 5756 5755 5754 5752 5751 5750 5748 5747 5745 5742 5740 5737 5735 5732 5729 5727 5724 5721 5719 5716 5714 5711 5708 5705 5702 5700 5697 5695 5693 5691 5689 5687 5685
5750 5750 5750 5750 5749 5749 5749 5748 5748 5747 5746 5746 5745 5743 5742 5740 5738 5737 5735 5733 5730 5727 5724 5721 5718 5715 5712 5710 5707 5704 5701 5698 5695 5691 5688 5685 5682 5679 5677 5674 5672 5669 5667
5739 5739 5739 5739 5739 5739 5739 5738 5738 5737 5737 5736 5735 5734 5732 5730 5729 5727 5725 5723 5720 5717 5713 5710 5706 5703 5700 5697 5694 5690 5687 5683 5680 5676 5673 5669 5666 5663 5660 5656 5653 5650 5648
5727 5727 5727 5727 5728 5728 5728 5728 5727 5726 5726 5725 5725 5723 5722 5720 5718 5716 5714 5711 5709 5706 5702 5698 5693 5690 5686 5683 5679 5676 5672 5668 5664 5660 5656 5652 5648 5644 5641 5637 5634 5630 5627
5713 5713 5714 5715 5715 5716 5716 5716 5716 5716 5715 5715 5714 5713 5711 5709 5707 5705 5703 5700 5697 5695 5691 5686 5681 5676 5673 5669 5665 5660 5656 5652 5647 5642 5637 5633 5628 5624 5620 5616 5613 5609 5605
5698 5699 5700 5701 5702 5703 5704 5705 5704 5705 5704 5704 5703 5702 5700 5698 5696 5694 5691 5688 5685 5682 5679 5674 5668 5663 5658 5654 5649 5645 5640 5635 5629 5624 5618 5613 5608 5603 5599 5594 5590 5586 5582
5682 5684 5685 5687 5689 5690 5692 5693 5693 5693 5693 5692 5692 5691 5689 5687 5684 5682 5678 5675 5672 5669 5665 5661 5655 5649 5643 5638 5632 5627 5622 5616 5610 5604 5598 5592 5587 5581 5576 5571 5565 5561 5556
5666 5668 5671 5674 5676 5678 5679 5680 5681 5682 5682 5681 5681 5679 5677 5675 5672 5669 5666 5662 5658 5655 5651 5647 5640 5634 5627 5621 5615 5609 5603 5596 5589 5582 5575 5568 5562 5556 5550 5544 5538 5533 5528
5651 5654 5658 5661 5663 5666 5667 5669 5670 5670 5670 5670 5669 5668 5666 5663 5660 5657 5653 5649 5644 5640 5636 5631 5625 5618 5611 5604 5598 5591 5584 5576 5568 5559 5551 5544 5536 5529 5522 5515 5509 5503 5497
5637 5641 5645 5649 5652 5654 5656 5658 5658 5659 5659 5659 5658 5656 5654 5652 5648 5645 5640 5635 5631 5625 5620 5615 5609 5601 5594 5585 5579 5572 5564 5555 5545 5535 5526 5518 5509 5501 5492 5485 5479 5473 5467
5623 5629 5633 5638 5641 5644 5646 5647 5648 5648 5648 5648 5647 5645 5643 5640 5637 5632 5627 5622 5616 5610 5604 5598 5591 5584 5575 5566 5559 5552 5545 5534 5523 5510 5500 5491 5481 5472 5463 5455 5449 5443 5438
5613 5618 5623 5628 5632 5634 5636 5638 5638 5639 5639 5638 5636 5635 5632 5629 5624 5620 5614 5608 5602 5595 5588 5581 5574 5566 5557 5548 5539 5530 5522 5513 5501 5485 5477 5465 5454 5446 5436 5428 5421 5416 5412
5605 5610 5615 5619 5623 5626 5628 5629 5630 5630 5629 5628 5626 5624 5621 5617 5613 5607 5601 5594 5587 5579 5572 5565 5556 5547 5538 5528 5519 5508 5498 5490 5480 5465 5454 5446 5432 5425 5415 5407 5399 5393 5388
5599 5604 5609 5613 5616 5619 5620 5621 5621 5621 5620 5619 5616 5613 5610 5605 5600 5594 5587 5579 5571 5562 5554 5546 5538 5527 5518 5509 5499 5489 5476 5465 5454 5440 5432 5429 5415 5406 5397 5388 5379 5372 5367
5597 5601 5605 5608 5610 5612 5614 5614 5614 5613 5611 5609 5606 5603 5599 5593 5587 5580 5573 5565 5555 5546 5537 5528 5519 5508 5497 5487 5477 5467 5456 5448 5437 5422 5410 5407 5398 5389 5381 5371 5360 5352 5347
5595 5598 5601 5603 5605 5607 5607 5607 5606 5605 5602 5600 5597 5592 5587 5581 5574 5567 5560 5551 5541 5530 5519 5508 5498 5488 5477 5466 5456 5448 5438 5429 5422 5410 5395 5389 5382 5373 5366 5356 5345 5335 5329
5594 5596 5598 5600 5601 5601 5601 5600 5599 5597 5594 5590 5586 5581 5575 5568 5560 5552 5544 5535 5525 5514 5503 5491 5479 5468 5458 5448 5439 5430 5422 5413 5405 5397 5386 5378 5368 5358 5354 5347 5335 5325 5317